| time (UTC) | temp F | wind direction | speed knots | gust knots | rain 1hr in | rain 24hr in | rain mn in | humidity % | barometer mb |
| 20260507090034 | 51 | 285 | 7.0 | 13.0 | 0.00 | 0.00 | 0.00 | 90 | 1019.3 |
| 20260507084532 | 51 | 278 | 7.8 | 14.8 | 0.00 | 0.00 | 0.00 | 90 | 1019.3 |
| 20260507083034 | 51 | 265 | 7.8 | 13.0 | 0.00 | 0.00 | 0.00 | 90 | 1019.6 |
| 20260507081532 | 51 | 287 | 7.8 | 13.9 | 0.00 | 0.00 | 0.00 | 91 | 1019.6 |
| 20260507080038 | 51 | 269 | 7.0 | 12.2 | 0.00 | 0.00 | 0.00 | 91 | 1019.6 |
| 20260507074533 | 51 | 277 | 6.1 | 11.3 | 0.00 | 0.00 | 0.00 | 91 | 1019.6 |
| 20260507073033 | 52 | 264 | 7.8 | 13.0 | 0.00 | 0.00 | 0.00 | 91 | 1019.6 |
| 20260507071558 | 52 | 360 | 9.6 | 14.8 | 0.00 | 0.00 | 0.00 | 91 | 1019.5 |
| 20260507070037 | 52 | 268 | 8.7 | 15.6 | 0.00 | 0.00 | 0.00 | 91 | 1019.6 |
| 20260507064536 | 52 | 277 | 7.8 | 14.8 | 0.00 | 0.00 | 0.00 | 91 | 1019.6 |
| 20260507063034 | 52 | 289 | 10.4 | 15.6 | 0.00 | 0.00 | 0.00 | 91 | 1019.6 |
| 20260507061534 | 52 | 271 | 10.4 | 14.8 | 0.00 | 0.00 | 0.00 | 90 | 1019.6 |
| 20260507060036 | 52 | 278 | 8.7 | 20.0 | 0.00 | 0.00 | 0.00 | 91 | 1019.6 |
| 20260507054531 | 52 | 294 | 10.4 | 16.5 | 0.00 | 0.00 | 0.00 | 90 | 1019.5 |
| 20260507053057 | 52 | 298 | 13.9 | 18.2 | 0.00 | 0.00 | 0.00 | 90 | 1019.5 |
| 20260507051540 | 52 | 283 | 11.3 | 20.9 | 0.00 | 0.00 | 0.00 | 90 | 1019.6 |
| 20260507050037 | 52 | 271 | 11.3 | 18.2 | 0.00 | 0.00 | 0.00 | 90 | 1019.5 |
| 20260507044534 | 52 | 299 | 13.0 | 20.0 | 0.00 | 0.00 | 0.00 | 90 | 1019.5 |
| 20260507043031 | 53 | 304 | 13.0 | 20.0 | 0.00 | 0.00 | 0.00 | 90 | 1019.4 |
| 20260507041534 | 53 | 292 | 12.2 | 20.0 | 0.00 | 0.00 | 0.00 | 90 | 1019.2 |
| 20260507040034 | 53 | 284 | 13.9 | 20.9 | 0.00 | 0.00 | 0.00 | 89 | 1019.2 |
| 20260507034538 | 53 | 265 | 15.6 | 21.7 | 0.00 | 0.00 | 0.00 | 89 | 1019.1 |
| 20260507033040 | 53 | 288 | 14.8 | 20.9 | 0.00 | 0.00 | 0.00 | 89 | 1018.9 |
| 20260507031532 | 53 | 304 | 13.9 | 21.7 | 0.00 | 0.00 | 0.00 | 89 | 1018.8 |
| 20260507030032 | 54 | 320 | 14.8 | 24.3 | 0.00 | 0.00 | 0.00 | 88 | 1018.8 |
| 20260507024536 | 54 | 288 | 15.6 | 23.5 | 0.00 | 0.00 | 0.00 | 87 | 1018.7 |
| 20260507023035 | 54 | 277 | 13.9 | 21.7 | 0.00 | 0.00 | 0.00 | 87 | 1019.0 |
| 20260507021534 | 55 | 276 | 11.3 | 20.0 | 0.00 | 0.00 | 0.00 | 86 | 1018.8 |
| 20260507020035 | 55 | 294 | 16.5 | 23.5 | 0.00 | 0.00 | 0.00 | 86 | 1018.7 |
| 20260507014542 | 55 | 275 | 14.8 | 20.9 | 0.00 | 0.00 | 0.00 | 85 | 1018.8 |
| 20260507013034 | 56 | 341 | 14.8 | 23.5 | 0.00 | 0.00 | 0.00 | 84 | 1018.8 |
| 20260507011538 | 56 | 278 | 14.8 | 26.9 | 0.00 | 0.00 | 0.00 | 83 | 1019.0 |
| 20260507010035 | 57 | 311 | 13.9 | 22.6 | 0.00 | 0.00 | 0.00 | 83 | 1019.0 |
| 20260507004537 | 57 | 288 | 13.9 | 22.6 | 0.00 | 0.00 | 0.00 | 83 | 1019.2 |
| 20260507003030 | 57 | 314 | 14.8 | 25.2 | 0.00 | 0.00 | 0.00 | 83 | 1019.1 |
| 20260507001540 | 57 | 272 | 13.9 | 20.0 | 0.00 | 0.00 | 0.00 | 82 | 1019.3 |
| 20260507000032 | 58 | 290 | 13.0 | 20.9 | 0.00 | 0.00 | 0.00 | 82 | 1019.2 |
| 20260506234533 | 58 | 288 | 13.9 | 20.9 | 0.00 | 0.00 | 0.00 | 82 | 1019.1 |
| 20260506233031 | 59 | 295 | 13.0 | 20.9 | 0.00 | 0.00 | 0.00 | 81 | 1019.3 |
| 20260506231534 | 58 | 294 | 13.0 | 21.7 | 0.00 | 0.00 | 0.00 | 82 | 1019.3 |
| 20260506230037 | 58 | 289 | 13.0 | 21.7 | 0.00 | 0.00 | 0.00 | 82 | 1019.6 |
| 20260506224534 | 58 | 319 | 14.8 | 20.0 | 0.00 | 0.00 | 0.00 | 81 | 1019.7 |
| 20260506223033 | 59 | 290 | 13.0 | 22.6 | 0.00 | 0.00 | 0.00 | 81 | 1020.0 |
| 20260506221531 | 59 | 308 | 14.8 | 21.7 | 0.00 | 0.00 | 0.00 | 80 | 1020.0 |
| 20260506220038 | 60 | 254 | 12.2 | 20.0 | 0.00 | 0.00 | 0.00 | 79 | 1020.3 |
| 20260506214531 | 60 | 277 | 13.0 | 20.0 | 0.00 | 0.00 | 0.00 | 79 | 1020.6 |
| 20260506213032 | 61 | 253 | 12.2 | 17.4 | 0.00 | 0.00 | 0.00 | 79 | 1020.7 |
| 20260506211533 | 61 | 294 | 10.4 | 16.5 | 0.00 | 0.00 | 0.00 | 78 | 1020.5 |
| 20260506210032 | 60 | 288 | 9.6 | 15.6 | 0.00 | 0.00 | 0.00 | 79 | 1020.8 |
| 20260506204534 | 60 | 298 | 10.4 | 14.8 | 0.00 | 0.00 | 0.00 | 78 | 1020.7 |
| 20260506203031 | 61 | 298 | 8.7 | 15.6 | 0.00 | 0.00 | 0.00 | 78 | 1020.9 |
| 20260506201532 | 61 | 360 | 9.6 | 13.9 | 0.00 | 0.00 | 0.00 | 79 | 1020.9 |
| 20260506200033 | 61 | 286 | 8.7 | 14.8 | 0.00 | 0.00 | 0.00 | 79 | 1021.0 |
| 20260506194532 | 61 | 273 | 7.8 | 14.8 | 0.00 | 0.00 | 0.00 | 79 | 1021.2 |
| 20260506193031 | 61 | 360 | 7.0 | 13.0 | 0.00 | 0.00 | 0.00 | 79 | 1021.2 |
| 20260506191534 | 60 | 256 | 6.1 | 11.3 | 0.00 | 0.00 | 0.00 | 79 | 1021.2 |
| 20260506190034 | 60 | 254 | 5.2 | 11.3 | 0.00 | 0.00 | 0.00 | 78 | 1021.3 |
| 20260506184534 | 60 | 290 | 7.0 | 12.2 | 0.00 | 0.00 | 0.00 | 79 | 1021.3 |
| 20260506183030 | 60 | 295 | 5.2 | 12.2 | 0.00 | 0.00 | 0.00 | 80 | 1021.2 |
| 20260506181532 | 59 | 296 | 5.2 | 11.3 | 0.00 | 0.00 | 0.00 | 80 | 1021.3 |
| 20260506180032 | 59 | 294 | 7.0 | 10.4 | 0.00 | 0.00 | 0.00 | 80 | 1021.1 |
| 20260506174532 | 58 | 242 | 6.1 | 11.3 | 0.00 | 0.00 | 0.00 | 81 | 1021.1 |
| 20260506173036 | 58 | 314 | 7.8 | 11.3 | 0.00 | 0.00 | 0.00 | 80 | 1021.0 |
| 20260506171533 | 58 | 315 | 6.1 | 9.6 | 0.00 | 0.00 | 0.00 | 80 | 1021.4 |
| 20260506170036 | 57 | 289 | 4.3 | 8.7 | 0.00 | 0.00 | 0.00 | 80 | 1021.3 |
| 20260506164534 | 57 | 256 | 3.5 | 7.8 | 0.00 | 0.00 | 0.00 | 81 | 1021.0 |
| 20260506163037 | 56 | 282 | 3.5 | 7.8 | 0.00 | 0.00 | 0.00 | 82 | 1020.9 |
| 20260506161535 | 57 | 308 | 5.2 | 9.6 | 0.00 | 0.00 | 0.00 | 81 | 1021.0 |
| 20260506160031 | 56 | 304 | 5.2 | 7.0 | 0.00 | 0.00 | 0.00 | 82 | 1020.8 |
| 20260506154533 | 55 | 282 | 3.5 | 9.6 | 0.00 | 0.00 | 0.00 | 82 | 1021.0 |
| 20260506153031 | 56 | 306 | 3.5 | 7.0 | 0.00 | 0.00 | 0.00 | 82 | 1020.9 |
| 20260506151533 | 56 | 288 | 5.2 | 10.4 | 0.00 | 0.00 | 0.00 | 84 | 1020.8 |
| 20260506150034 | 55 | 300 | 5.2 | 8.7 | 0.00 | 0.00 | 0.00 | 84 | 1020.5 |
| 20260506144540 | 55 | 309 | 6.1 | 8.7 | 0.00 | 0.00 | 0.00 | 84 | 1020.5 |
| 20260506143032 | 55 | 264 | 5.2 | 8.7 | 0.00 | 0.00 | 0.00 | 85 | 1020.6 |
| 20260506141536 | 54 | 298 | 6.1 | 10.4 | 0.00 | 0.00 | 0.00 | 85 | 1020.4 |
| 20260506140032 | 54 | 297 | 4.3 | 7.0 | 0.00 | 0.00 | 0.00 | 86 | 1020.2 |
| 20260506134530 | 54 | 288 | 3.5 | 7.0 | 0.00 | 0.00 | 0.00 | 87 | 1020.0 |
| 20260506133040 | 53 | 302 | 2.6 | 7.0 | 0.00 | 0.00 | 0.00 | 87 | 1020.0 |
| 20260506131532 | 53 | 301 | 3.5 | 7.0 | 0.00 | 0.00 | 0.00 | 87 | 1019.9 |
| 20260506130031 | 54 | 323 | 4.3 | 7.8 | 0.00 | 0.00 | 0.00 | 87 | 1019.9 |
| 20260506124531 | 54 | 297 | 5.2 | 7.8 | 0.00 | 0.00 | 0.00 | 87 | 1019.7 |
| 20260506123030 | 54 | 279 | 3.5 | 7.0 | 0.00 | 0.00 | 0.00 | 86 | 1019.7 |
| 20260506121530 | 53 | 302 | 5.2 | 8.7 | 0.00 | 0.00 | 0.00 | 86 | 1019.6 |
| 20260506120034 | 53 | 321 | 4.3 | 7.8 | 0.00 | 0.00 | 0.00 | 87 | 1019.5 |
| 20260506114533 | 53 | 314 | 6.1 | 8.7 | 0.00 | 0.00 | 0.00 | 87 | 1019.5 |
| 20260506113032 | 53 | 300 | 5.2 | 7.8 | 0.00 | 0.00 | 0.00 | 87 | 1019.4 |
| 20260506111531 | 54 | 298 | 5.2 | 9.6 | 0.00 | 0.00 | 0.00 | 87 | 1019.3 |
| 20260506110030 | 54 | 315 | 5.2 | 9.6 | 0.00 | 0.00 | 0.00 | 87 | 1019.1 |
| 20260506104533 | 53 | 292 | 6.1 | 10.4 | 0.00 | 0.00 | 0.00 | 87 | 1019.1 |
| 20260506103032 | 53 | 292 | 4.3 | 9.6 | 0.00 | 0.00 | 0.00 | 87 | 1019.0 |
| 20260506101532 | 53 | 300 | 4.3 | 7.8 | 0.00 | 0.00 | 0.00 | 88 | 1018.8 |
| 20260506100031 | 54 | 260 | 3.5 | 7.0 | 0.00 | 0.00 | 0.00 | 88 | 1018.9 |
| 20260506094531 | 53 | 290 | 3.5 | 7.8 | 0.00 | 0.01 | 0.00 | 87 | 1019.0 |
| 20260506093037 | 53 | 282 | 4.3 | 8.7 | 0.00 | 0.01 | 0.00 | 87 | 1018.9 |
| 20260506091532 | 54 | 296 | 4.3 | 7.8 | 0.00 | 0.01 | 0.00 | 87 | 1018.9 |